| time (UTC) | temp F | wind direction | speed MPH | gust MPH | rain 1hr in | rain 24hr in | rain mn in | humidity % | barometer mb |
| 20260504214203 | 81 | 105 | 4.0 | 9.0 | 0.00 | 0.00 | 0.00 | 30 | 1003.0 |
| 20260504212803 | 81 | 173 | 4.0 | 8.0 | 0.00 | 0.00 | 0.00 | 29 | 1003.2 |
| 20260504211403 | 81 | 115 | 4.0 | 6.0 | 0.00 | 0.00 | 0.00 | 29 | 1003.4 |
| 20260504210004 | 81 | 99 | 2.0 | 7.0 | 0.00 | 0.00 | 0.00 | 27 | 1003.6 |
| 20260504204604 | 80 | 86 | 3.0 | 6.0 | 0.00 | 0.00 | 0.00 | 29 | 1003.8 |
| 20260504203204 | 80 | 148 | 3.0 | 10.0 | 0.00 | 0.00 | 0.00 | 27 | 1003.9 |
| 20260504201804 | 80 | 91 | 3.0 | 7.0 | 0.00 | 0.00 | 0.00 | 27 | 1004.0 |
| 20260504200404 | 79 | 126 | 4.0 | 9.0 | 0.00 | 0.00 | 0.00 | 29 | 1004.2 |
| 20260504195004 | 79 | 169 | 4.0 | 8.0 | 0.00 | 0.00 | 0.00 | 29 | 1004.3 |
| 20260504193604 | 79 | 131 | 3.0 | 5.0 | 0.00 | 0.00 | 0.00 | 30 | 1004.4 |
| 20260504192204 | 78 | 110 | 4.0 | 6.0 | 0.00 | 0.00 | 0.00 | 29 | 1004.6 |
| 20260504190804 | 78 | 127 | 4.0 | 8.0 | 0.00 | 0.00 | 0.00 | 34 | 1004.7 |
| 20260504185404 | 77 | 111 | 5.0 | 10.0 | 0.00 | 0.00 | 0.00 | 35 | 1004.9 |
| 20260504184004 | 77 | 148 | 4.0 | 8.0 | 0.00 | 0.00 | 0.00 | 35 | 1005.0 |
| 20260504182604 | 76 | 232 | 3.0 | 7.0 | 0.00 | 0.00 | 0.00 | 38 | 1005.0 |
| 20260504181204 | 76 | 124 | 2.0 | 5.0 | 0.00 | 0.00 | 0.00 | 39 | 1005.0 |
| 20260504175804 | 75 | 128 | 1.0 | 3.0 | 0.00 | 0.00 | 0.00 | 44 | 1005.0 |
| 20260504174404 | 73 | 127 | 1.0 | 3.0 | 0.00 | 0.00 | 0.00 | 41 | 1005.1 |
| 20260504173004 | 73 | 247 | 2.0 | 4.0 | 0.00 | 0.00 | 0.00 | 42 | 1005.1 |
| 20260504171605 | 71 | 149 | 2.0 | 4.0 | 0.00 | 0.00 | 0.00 | 44 | 1005.2 |
| 20260504170205 | 70 | 133 | 2.0 | 3.0 | 0.00 | 0.00 | 0.00 | 41 | 1005.2 |
| 20260504151005 | 67 | 90 | 0.0 | 0.0 | 0.00 | 0.00 | 0.00 | 45 | 1005.5 |
| 20260504130406 | 59 | 226 | 2.0 | 4.0 | 0.00 | 0.00 | 0.00 | 46 | 1004.4 |
| 20260504100207 | 59 | 30 | 0.0 | 1.0 | 0.00 | 0.00 | 0.00 | 54 | 1004.7 |
| 20260504081007 | 70 | 337 | 7.0 | 9.0 | 0.00 | 0.00 | 0.00 | 31 | 1004.6 |
| 20260504045408 | 72 | 326 | 6.0 | 11.0 | 0.00 | 0.00 | 0.00 | 37 | 1005.1 |
| 20260504044008 | 72 | 330 | 7.0 | 11.0 | 0.00 | 0.00 | 0.00 | 36 | 1005.1 |
| 20260504042608 | 70 | 349 | 5.0 | 7.0 | 0.00 | 0.00 | 0.00 | 40 | 1005.0 |
| 20260504041208 | 70 | 335 | 4.0 | 6.0 | 0.00 | 0.00 | 0.00 | 40 | 1004.9 |
| 20260504035808 | 70 | 305 | 2.0 | 7.0 | 0.00 | 0.00 | 0.00 | 41 | 1004.8 |
| 20260504034408 | 70 | 307 | 1.0 | 3.0 | 0.00 | 0.00 | 0.00 | 41 | 1004.7 |
| 20260504033008 | 70 | 309 | 2.0 | 3.0 | 0.00 | 0.00 | 0.00 | 42 | 1004.6 |
| 20260504031608 | 69 | 304 | 2.0 | 5.0 | 0.00 | 0.00 | 0.00 | 44 | 1004.5 |
| 20260504030209 | 67 | 319 | 3.0 | 4.0 | 0.00 | 0.00 | 0.00 | 48 | 1004.5 |
| 20260504024809 | 71 | 317 | 1.0 | 2.0 | 0.00 | 0.00 | 0.00 | 45 | 1004.5 |
| 20260504023409 | 75 | 303 | 2.0 | 3.0 | 0.00 | 0.00 | 0.00 | 40 | 1004.4 |
| 20260504022009 | 77 | 295 | 1.0 | 2.0 | 0.00 | 0.00 | 0.00 | 38 | 1004.5 |
| 20260504020609 | 81 | 222 | 0.0 | 1.0 | 0.00 | 0.00 | 0.00 | 37 | 1004.6 |
| 20260504015209 | 82 | 224 | 1.0 | 2.0 | 0.00 | 0.00 | 0.00 | 31 | 1004.7 |
| 20260504013809 | 82 | 204 | 1.0 | 3.0 | 0.00 | 0.00 | 0.00 | 30 | 1004.7 |
| 20260504012409 | 81 | 165 | 3.0 | 3.0 | 0.00 | 0.00 | 0.00 | 30 | 1004.9 |
| 20260504011009 | 81 | 161 | 2.0 | 5.0 | 0.00 | 0.00 | 0.00 | 29 | 1005.1 |
| 20260504005609 | 82 | 100 | 2.0 | 4.0 | 0.00 | 0.00 | 0.00 | 28 | 1005.1 |
| 20260504004209 | 81 | 162 | 3.0 | 5.0 | 0.00 | 0.00 | 0.00 | 28 | 1005.4 |
| 20260504002809 | 81 | 108 | 5.0 | 6.0 | 0.00 | 0.00 | 0.00 | 28 | 1005.4 |
| 20260504001409 | 81 | 124 | 3.0 | 6.0 | 0.00 | 0.00 | 0.00 | 28 | 1005.6 |
| 20260504000009 | 82 | 176 | 2.0 | 7.0 | 0.00 | 0.00 | 0.00 | 27 | 1005.8 |
| 20260503234609 | 82 | 150 | 2.0 | 3.0 | 0.00 | 0.00 | 0.00 | 28 | 1005.8 |
| 20260503233210 | 81 | 158 | 4.0 | 7.0 | 0.00 | 0.00 | 0.00 | 28 | 1006.0 |
| 20260503231810 | 82 | 230 | 3.0 | 6.0 | 0.00 | 0.00 | 0.00 | 27 | 1006.2 |
| 20260503230410 | 80 | 148 | 2.0 | 5.0 | 0.00 | 0.00 | 0.00 | 28 | 1006.3 |
| 20260503225010 | 80 | 105 | 3.0 | 8.0 | 0.00 | 0.00 | 0.00 | 29 | 1006.6 |
| 20260503223610 | 81 | 148 | 3.0 | 6.0 | 0.00 | 0.00 | 0.00 | 29 | 1006.9 |
| 20260503222210 | 82 | 160 | 0.0 | 3.0 | 0.00 | 0.00 | 0.00 | 26 | 1007.1 |
| 20260503220810 | 81 | 175 | 3.0 | 6.0 | 0.00 | 0.00 | 0.00 | 26 | 1007.3 |
| 20260503215410 | 81 | 154 | 3.0 | 6.0 | 0.00 | 0.00 | 0.00 | 26 | 1007.5 |